Weather reports worldwide

Advertisment
Ciudad Real, Spain (8348): temperature & dewpoint: 18.08.2019 07:00:00 - 24.08.2019 07:00:00 (CEST)Ciudad Real, Spain (8348): wind speed: 18.08.2019 07:00:00 - 24.08.2019 07:00:00 (CEST)Ciudad Real, Spain (8348): wind direction: 18.08.2019 07:00:00 - 24.08.2019 07:00:00 (CEST)Ciudad Real, Spain (8348): reduced air pressure: 18.08.2019 07:00:00 - 24.08.2019 07:00:00 (CEST)Ciudad Real, Spain (8348): visibility: 18.08.2019 07:00:00 - 24.08.2019 07:00:00 (CEST)Ciudad Real, Spain (8348): precipitation: 18.08.2019 07:00:00 - 24.08.2019 07:00:00 (CEST)
Date & Time tt [°C] td [°C] ff [km/h] ff [kn] dd ppp [hPa] vv [km] rr [mm]
24.08.2019 07:00:00 16,7 7,9 4 2 NE 1018,8 20 0,0
24.08.2019 06:00:00 17,2 7,0 5 3 E 1018,6 20 0,0
24.08.2019 05:00:00 17,9 6,1 8 4 ENE 1018,3 20 -
24.08.2019 04:00:00 18,8 5,3 8 4 NE 1018,1 20 0,0
24.08.2019 03:00:00 19,4 3,9 5 3 ENE 1017,9 20 0,0
24.08.2019 02:00:00 20,9 3,6 2 1 NNE 1017,5 20 -
24.08.2019 01:00:00 22,6 3,7 4 2 NNE 1016,9 20 0,0
24.08.2019 00:00:00 24,0 2,7 8 4 ENE 1016,4 20 0,0
23.08.2019 23:00:00 26,2 2,8 8 4 ENE 1015,7 20 -
23.08.2019 22:00:00 27,6 1,9 9 5 ENE 1015,1 20 0,0
23.08.2019 21:00:00 29,6 1,1 9 5 ENE 1014,1 20 0,0
23.08.2019 20:00:00 31,3 1,6 9 5 NE 1013,5 20 -
23.08.2019 19:00:00 33,0 1,9 11 6 E 1013,3 20 0,0
23.08.2019 18:00:00 33,6 3,4 9 5 NE 1013,3 20 0,0
23.08.2019 17:00:00 34,3 3,9 9 5 NNE 1013,4 20 -
23.08.2019 16:00:00 34,2 3,9 5 3 ESE 1013,7 20 0,0
23.08.2019 15:00:00 33,2 4,0 11 6 ENE 1014,8 20 0,0
23.08.2019 14:00:00 31,5 5,8 11 6 E 1015,8 20 -
23.08.2019 13:00:00 30,2 8,6 8 4 E 1016,6 20 0,0
23.08.2019 12:00:00 28,2 11,3 5 3 E 1017,4 20 0,0
23.08.2019 11:00:00 25,2 10,6 8 4 ENE 1018,4 20 -
23.08.2019 10:00:00 21,7 10,8 9 5 ENE 1019,1 20 0,0
23.08.2019 09:00:00 18,9 12,4 5 3 NE 1019,5 19 0,0
23.08.2019 08:00:00 17,8 12,5 8 4 NE 1019,3 20 -
23.08.2019 07:00:00 18,3 12,7 9 5 ENE 1018,6 20 0,0
23.08.2019 06:00:00 18,9 12,9 9 5 ENE 1018,4 20 0,0
23.08.2019 05:00:00 19,5 12,0 11 6 ENE 1018,2 20 -
23.08.2019 04:00:00 20,2 10,9 5 3 E 1017,9 20 0,0
23.08.2019 03:00:00 20,7 9,0 8 4 NE 1017,9 20 0,0
23.08.2019 02:00:00 22,0 7,4 5 3 ENE 1017,6 19 -
23.08.2019 01:00:00 23,5 7,1 8 4 ENE 1017,1 20 0,0
23.08.2019 00:00:00 24,6 6,3 9 5 ENE 1016,9 20 0,0
22.08.2019 23:00:00 25,7 5,8 5 3 NE 1016,4 20 -
22.08.2019 22:00:00 26,9 5,8 5 3 NE 1015,7 20 0,0
22.08.2019 21:00:00 29,4 6,1 8 4 NE 1014,7 20 0,0
22.08.2019 20:00:00 31,1 5,5 11 6 ENE 1014,0 20 -
22.08.2019 19:00:00 32,4 6,6 13 7 ENE 1013,8 20 0,0
22.08.2019 18:00:00 33,0 6,3 13 7 E 1013,9 20 0,0
22.08.2019 17:00:00 33,1 6,4 11 6 E 1014,1 20 -
22.08.2019 16:00:00 32,5 8,0 11 6 E 1015,0 20 0,0
22.08.2019 15:00:00 31,9 8,8 15 8 ENE 1015,6 20 0,0
22.08.2019 14:00:00 30,9 10,8 11 6 ENE 1016,3 20 -
22.08.2019 13:00:00 29,2 12,2 13 7 E 1017,4 20 0,0
22.08.2019 12:00:00 27,1 12,7 16 9 ENE 1018,2 20 0,0
22.08.2019 11:00:00 24,0 14,7 15 8 ENE 1019,0 20 -
22.08.2019 10:00:00 20,8 14,2 13 7 ENE 1019,8 20 0,0
22.08.2019 09:00:00 18,4 13,7 9 5 ENE 1020,4 20 0,0
22.08.2019 08:00:00 17,4 13,5 9 5 ENE 1020,1 20 -
22.08.2019 07:00:00 17,8 13,7 9 5 E 1019,6 20 0,0
22.08.2019 06:00:00 17,9 13,8 8 4 ENE 1019,3 20 0,0
22.08.2019 05:00:00 18,1 13,8 4 2 NE 1019,2 20 -
22.08.2019 04:00:00 19,0 14,3 4 2 NE 1018,9 20 0,0
22.08.2019 03:00:00 19,9 14,9 5 3 E 1018,6 20 0,0
22.08.2019 02:00:00 20,4 15,2 18 10 E 1019,4 20 -
22.08.2019 01:00:00 20,8 15,8 18 10 ENE 1019,6 20 0,0
22.08.2019 00:00:00 21,7 16,9 16 9 ENE 1018,7 20 0,0
21.08.2019 23:00:00 23,8 16,8 16 9 ENE 1017,7 20 -
21.08.2019 22:00:00 25,3 15,3 13 7 ENE 1016,4 20 0,0
21.08.2019 21:00:00 26,8 14,5 11 6 ENE 1015,2 20 0,0
21.08.2019 20:00:00 28,2 14,4 18 10 ENE 1014,2 20 -
21.08.2019 19:00:00 30,4 13,2 15 8 E 1013,3 20 0,0
21.08.2019 18:00:00 32,6 9,4 8 4 E 1012,4 20 0,0
21.08.2019 17:00:00 32,9 11,4 8 4 WNW 1012,9 20 -
21.08.2019 16:00:00 31,8 9,3 5 3 WNW 1013,4 20 0,0
21.08.2019 15:00:00 30,7 11,6 8 4 WSW 1014,5 20 0,0
21.08.2019 14:00:00 29,6 11,6 5 3 SW 1015,0 20 -
21.08.2019 13:00:00 28,6 14,1 8 4 W 1015,9 20 0,0
21.08.2019 12:00:00 26,7 14,1 5 3 WNW 1016,8 20 0,0
21.08.2019 11:00:00 25,7 11,8 2 1 N 1017,1 20 -
21.08.2019 10:00:00 23,7 12,3 5 3 SSE 1017,4 20 0,0
21.08.2019 09:00:00 20,8 15,3 4 2 SE 1017,8 20 0,0
21.08.2019 08:00:00 19,8 16,1 8 4 E 1017,4 20 -
21.08.2019 07:00:00 19,9 16,1 5 3 ENE 1017,0 20 0,0
21.08.2019 06:00:00 20,2 16,4 8 4 ENE 1016,6 20 0,0
21.08.2019 05:00:00 20,5 16,5 11 6 ENE 1016,5 20 -
21.08.2019 04:00:00 20,8 16,4 16 9 ENE 1016,4 20 0,0
21.08.2019 03:00:00 20,8 15,8 15 8 NE 1016,8 20 0,0
21.08.2019 02:00:00 20,9 15,2 13 7 NE 1016,9 20 -
21.08.2019 01:00:00 21,8 15,2 16 9 NE 1016,5 19 0,0
21.08.2019 00:00:00 23,7 15,7 18 10 ENE 1015,4 19 0,0
20.08.2019 23:00:00 25,9 15,9 16 9 NE 1014,4 14 -
20.08.2019 22:00:00 28,1 3,0 5 3 NNE 1013,2 20 0,0
20.08.2019 21:00:00 30,5 1,8 4 2 N 1012,3 20 0,0
20.08.2019 20:00:00 32,1 2,2 4 2 NNW 1011,7 20 -
20.08.2019 19:00:00 33,7 1,5 5 3 NNE 1011,5 20 0,0
20.08.2019 18:00:00 34,0 0,6 9 5 WNW 1011,4 20 0,0
20.08.2019 17:00:00 34,5 1,0 5 3 W 1011,5 20 -
20.08.2019 16:00:00 34,1 0,7 8 4 WSW 1012,2 20 0,0
20.08.2019 15:00:00 32,7 2,7 5 3 W 1012,9 20 0,0
20.08.2019 14:00:00 32,1 3,1 8 4 SW 1013,2 20 -
20.08.2019 13:00:00 31,1 5,5 5 3 SE 1013,7 20 0,0
20.08.2019 12:00:00 29,9 5,9 4 2 W 1013,9 20 0,0
20.08.2019 11:00:00 26,9 6,3 2 1 NNW 1014,3 20 -
20.08.2019 10:00:00 22,9 5,8 4 2 WSW 1014,9 20 0,0
20.08.2019 09:00:00 22,2 5,6 5 3 WSW 1014,7 20 0,0
20.08.2019 08:00:00 21,6 4,6 8 4 WSW 1014,3 20 -
20.08.2019 07:00:00 21,9 3,5 8 4 WSW 1013,7 20 0,0
20.08.2019 06:00:00 22,0 3,6 8 4 WSW 1013,7 20 0,0
20.08.2019 05:00:00 22,4 3,5 8 4 WSW 1013,5 20 -
20.08.2019 04:00:00 23,2 3,2 4 2 SW 1013,4 20 0,0
20.08.2019 03:00:00 23,8 4,7 8 4 WSW 1013,5 20 0,0
20.08.2019 02:00:00 24,8 5,5 4 2 W 1013,4 20 -
20.08.2019 01:00:00 25,7 6,8 5 3 WSW 1013,0 20 0,0
20.08.2019 00:00:00 26,6 8,1 5 3 W 1012,6 20 0,0
19.08.2019 23:00:00 27,8 8,1 9 5 WNW 1012,1 20 -
19.08.2019 22:00:00 28,9 9,1 13 7 NW 1010,9 20 0,0
19.08.2019 21:00:00 31,0 9,2 15 8 NW 1009,8 20 0,0
19.08.2019 20:00:00 32,7 8,9 9 5 WNW 1009,1 20 -
19.08.2019 19:00:00 34,1 9,4 9 5 WNW 1009,0 20 0,0
19.08.2019 18:00:00 34,6 9,1 13 7 WNW 1009,2 20 0,0
19.08.2019 17:00:00 34,7 9,9 15 8 W 1009,6 20 -
19.08.2019 16:00:00 35,0 8,7 9 5 WSW 1010,0 20 0,0
19.08.2019 15:00:00 34,8 7,8 11 6 WSW 1010,6 20 0,0
19.08.2019 14:00:00 33,2 9,3 9 5 SW 1011,4 20 -
19.08.2019 13:00:00 32,2 10,3 9 5 WSW 1011,8 20 0,0
19.08.2019 12:00:00 30,8 11,2 8 4 WSW 1012,4 20 0,0
19.08.2019 11:00:00 28,1 13,6 5 3 SSW 1013,0 20 -
19.08.2019 10:00:00 25,2 14,3 5 3 W 1013,6 20 0,0
19.08.2019 09:00:00 22,4 14,5 8 4 WSW 1014,3 20 0,0
19.08.2019 08:00:00 21,5 13,7 8 4 WSW 1014,1 20 -
19.08.2019 07:00:00 - - - - - - - -
19.08.2019 06:00:00 - - - - - - - -
19.08.2019 05:00:00 - - - - - - - -
19.08.2019 04:00:00 - - - - - - - -
19.08.2019 03:00:00 - - - - - - - -
19.08.2019 02:00:00 - - - - - - - -
19.08.2019 01:00:00 - - - - - - - -
19.08.2019 00:00:00 - - - - - - - -
18.08.2019 23:00:00 - - - - - - - -
18.08.2019 22:00:00 - - - - - - - -
18.08.2019 21:00:00 - - - - - - - -
18.08.2019 20:00:00 - - - - - - - -
18.08.2019 19:00:00 - - - - - - - -
18.08.2019 18:00:00 - - - - - - - -
18.08.2019 17:00:00 - - - - - - - -
18.08.2019 16:00:00 - - - - - - - -
18.08.2019 15:00:00 - - - - - - - -
18.08.2019 14:00:00 - - - - - - - -
18.08.2019 13:00:00 - - - - - - - -
18.08.2019 12:00:00 - - - - - - - -
18.08.2019 11:00:00 - - - - - - - -
18.08.2019 10:00:00 - - - - - - - -
18.08.2019 09:00:00 - - - - - - - -
18.08.2019 08:00:00 - - - - - - - -
18.08.2019 07:00:00 - - - - - - - -

tt = temperature
td = dewpoint
ff = wind speed
dd = wind direction
ppp = reduced air pressure
vv = visibility
rr = precipitation

Next stations